Content
SEND FEEDBACK

Daily
Averages
Monthly
Summary
United States of America

DOUGLASVILLE, GEORGIA


Home > North America > United States > Georgia
Elevation: 37 meters     Latitude: 33 45N     Longitude: 084 45W

WEATHER
 
SELECT A DAY
Number of Records: 195,909;   Date Range: 1/1/95 - 12/16/14
 
SHARE

PRINT THIS DATA

[ ← Previous Day ]
WEATHER ALMANAC - 31 JANUARY, 2013
[ Next Day → ]
[ °F ]   °C
Weather ElementAverageHighLow
Temperature4.9 °C8.9 °C (3:53 pm)1.1 °C (6:53 am)
Dewpoint-4.1 °C0.6 °C (12:53 am)-6.1 °C (3:53 pm)
Humidity54 %70 % (12:53 am)34 % (3:53 pm)
Barometer1018.6 hPa1021.7 hPa (9:53 pm)1011.2 hPa (12:53 am)
Wind Speed17.7 km/h35.2 km/h (1:53 pm)
Wind Gust51.8 km/h (1:53 am)
Weather ElementAverage
Visibility16.1 km
Wind DirectionW (266.7 °)

Weather ElementTotal
Precipitation---
Heating Degree Days13.3 (Base 18.3)
Averaged from 24 records on 31 January, 2013
WEATHER CONDITIONS BREAKOUT
WIND DIRECTION BREAKOUT
WEATHER BY HOUR - 31 JANUARY, 2013
[ °F ]   °C
Local TimeTemperatureDewpointHumidityBarometerVisibilityWind DirectionWind SpeedGust SpeedPrecipitationEventsConditions
12:53 AM5.6 °C0.6 °C70 %1011.2 hPa16.1 kmWest (260°)27.8 km/h42.6 km/h0 mmOvercast
1:53 AM5 °C0 °C70 %1012.5 hPa16.1 kmWNW (300°)24.1 km/h51.8 km/hOvercast
2:53 AM3.3 °C-2.8 °C65 %1014.2 hPa16.1 kmWest (270°)20.4 km/h35.2 km/hClear
3:53 AM2.8 °C-3.9 °C62 %1014.9 hPa16.1 kmWest (270°)16.7 km/h27.8 km/hOvercast
4:53 AM2.2 °C-3.9 °C64 %1015.6 hPa16.1 kmWest (270°)16.7 km/h31.5 km/hMostly Cloudy
5:53 AM1.7 °C-4.4 °C64 %1016.9 hPa16.1 kmWest (260°)16.7 km/h29.6 km/hPartly Cloudy
6:53 AM1.1 °C-4.4 °C67 %1017.3 hPa16.1 kmWest (270°)14.8 km/hClear
7:53 AM1.1 °C-4.4 °C67 %1017.9 hPa16.1 kmWest (280°)14.8 km/hClear
8:53 AM1.7 °C-3.9 °C67 %1018.3 hPa16.1 kmWNW (300°)22.2 km/h33.3 km/hClear
9:53 AM2.8 °C-3.3 °C65 %1019.3 hPa16.1 kmWNW (290°)24.1 km/h37 km/hClear
10:53 AM4.4 °C-3.9 °C55 %1019.6 hPa16.1 kmWest (270°)14.8 km/hClear
11:53 AM6.1 °C-4.4 °C47 %1020.3 hPa16.1 kmNW (310°)27.8 km/h38.9 km/hClear
12:53 PM7.2 °C-5 °C42 %1020.3 hPa16.1 kmWNW (290°)22.2 km/h37 km/hClear
1:53 PM8.3 °C-5 °C39 %1020 hPa16.1 kmNW (310°)35.2 km/h46.3 km/hClear
2:53 PM8.3 °C-5.6 °C37 %1020 hPa16.1 kmNW (310°)20.4 km/h40.7 km/hClear
3:53 PM8.9 °C-6.1 °C34 %1020 hPa16.1 kmWest (280°)25.9 km/h38.9 km/hClear
4:53 PM8.9 °C-6.1 °C34 %1020 hPa16.1 kmWNW (290°)14.8 km/h31.5 km/hClear
5:53 PM8.3 °C-6.1 °C36 %1020 hPa16.1 kmWest (260°)14.8 km/hClear
6:53 PM7.2 °C-5.6 °C40 %1020.7 hPa16.1 kmWSW (250°)5.6 km/hClear
7:53 PM6.1 °C-4.4 °C47 %1020.7 hPa16.1 kmSW (220°)7.4 km/hClear
8:53 PM5 °C-4.4 °C51 %1021.3 hPa16.1 kmSW (220°)7.4 km/hClear
9:53 PM4.4 °C-3.9 °C55 %1021.7 hPa16.1 kmSSW (200°)9.3 km/hClear
10:53 PM3.9 °C-3.9 °C57 %1021.7 hPa16.1 kmSSW (200°)11.1 km/hClear
11:53 PM3.3 °C-3.3 °C62 %1021.7 hPa16.1 kmSW (220°)7.4 km/hClear
Hourly data recorded from KFTY, located 0 kilometers away from Douglasville, Georgia







STORIES FROM OUR PARTNERS